Voltar ao catálogo

COSMOS 2236

GLONASS

AtivoNavegaçãoMEO
NORAD 22513·PAYLOAD·🇷🇺 Russia

Lançado Feb 17, 1993 de Baikonur Cosmodrome

Loading…

Próximas Passagens (próximas 24 horas)

TLE

AtualizadoSource: Space-Track

Época: Sep 13, 2026, 12:05 UTC

1 22513U 93010B   26256.50368495 -.00000014  00000-0  00000-0 0  9993
2 22513  64.9541  66.9525 0005466  83.2188 266.8735  2.13104576261250

Acompanhe COSMOS 2236 em tempo real com AllMySat

Download on the App Store